CAPE
0 0 0 0 0 0 0 0 0 0 0 0 0 0 0 0 0 73 72 151 371 295 104 305 335 441 378 288 231 493 406 479 221 9 2 10 4 2 2 10 2 6 5 6 3 1 1 8 20
0 0 0 0 0 0 0 0 0 0 0 0 0 0 0 0 0 39 69 114 59 41 74 28 254 237 231 292 382 533 478 482 176 5 1 10 5 8 12 16 7 1 6 7 16 19 17 12 18
0 0 0 0 0 0 0 0 0 0 0 0 0 0 0 0 4 69 82 25 13 16 113 125 263 272 167 238 446 565 486 407 111 7 2 6 3 2 0 16 12 7 2 6 3 29 18 19 20
0 0 0 0 0 0 0 0 0 0 0 0 0 0 0 0 15 93 11 0 2 273 339 246 230 124 23 70 289 606 540 336 45 8 1 4 5 3 0 0 27 18 0 11 27 22 13 12 14
0 0 0 0 0 0 0 0 0 0 0 0 0 0 0 0 21 69 4 0 34 274 338 175 78 3 0 0 86 442 367 135 24 8 1 0 1 0 0 0 1 20 9 26 35 19 8 4 4
0 0 0 0 0 0 0 0 0 0 0 0 0 0 0 16 76 33 21 7 123 330 128 47 17 0 0 0 13 183 225 59 0 0 0 0 0 3 0 0 2 31 23 26 19 6 0 0 0
0 0 0 0 0 0 0 0 0 0 0 0 0 0 0 22 88 0 0 51 167 180 95 2 0 0 0 0 0 1 74 1 0 0 0 0 0 1 0 0 10 25 11 10 9 6 0 0 0
0 0 0 0 0 0 0 0 0 0 0 0 0 0 0 14 81 0 0 103 162 139 189 32 0 0 0 0 0 0 0 0 0 0 0 0 0 0 0 0 0 6 11 5 6 0 0 0 0
0 0 0 0 0 0 0 0 0 0 0 0 0 0 0 19 62 0 0 90 138 108 181 231 49 1 3 1 0 0 0 0 0 0 0 0 0 0 0 0 0 6 3 7 2 1 2 0 0
0 0 0 0 0 0 0 0 0 0 0 0 0 0 8 18 19 7 14 64 123 120 131 180 176 61 4 2 0 2 0 0 1 0 0 0 0 0 0 0 0 0 1 3 4 1 0 0 1
0 0 0 0 0 0 0 0 0 0 0 0 0 0 0 8 1 0 1 20 71 114 137 173 161 103 60 1 1 3 0 1 2 1 0 0 0 0 0 0 0 0 0 0 0 0 0 1 8
0 0 0 0 0 0 0 0 0 0 0 0 0 0 0 0 0 0 0 0 12 61 89 91 83 88 105 31 32 4 2 0 0 0 0 0 0 0 0 0 2 1 0 0 0 0 0 1 3
0 0 0 0 0 0 0 0 0 0 0 0 0 0 0 0 0 0 0 0 0 0 22 60 58 65 109 84 48 1 4 3 1 0 0 0 0 0 0 0 0 1 0 0 0 0 0 0 0
0 0 0 0 0 0 0 0 0 0 0 0 0 0 0 0 0 0 0 0 0 0 0 43 58 27 9 1 1 18 24 21 2 3 0 0 0 0 0 0 0 0 0 0 0 0 0 0 0
0 0 0 0 0 0 0 0 0 0 0 0 0 0 0 0 0 0 0 0 0 0 10 49 71 15 0 1 2 4 2 1 1 0 3 0 0 0 0 0 0 0 0 0 0 0 0 0 0
0 0 0 0 0 0 0 0 0 0 0 0 0 0 0 0 0 0 0 0 0 2 42 111 79 22 1 1 4 4 3 2 1 0 0 3 0 0 0 0 0 0 0 0 0 0 0 0 0
0 0 0 0 0 0 0 0 0 0 0 0 0 0 0 0 0 0 0 0 0 0 26 57 97 6 1 11 25 26 12 3 2 2 2 1 0 1 0 0 0 0 0 0 0 0 0 0 0
0 0 0 0 0 0 0 0 0 0 0 0 0 0 0 0 0 0 0 0 0 0 0 34 102 94 1 10 22 24 20 15 3 8 2 1 0 0 0 0 2 0 0 0 0 0 0 0 0
0 0 0 0 0 0 0 0 0 0 0 0 0 0 0 0 0 0 0 0 0 0 0 0 36 116 62 1 8 4 21 11 16 27 17 0 0 0 0 0 0 0 0 0 0 0 0 0 0
0 0 0 0 0 0 0 0 0 0 0 0 0 0 0 0 0 0 0 0 0 0 0 0 0 20 96 17 1 9 9 11 13 10 0 3 1 0 0 0 0 0 0 0 0 0 0 0 0
0 0 0 0 0 0 0 0 0 0 0 0 0 0 0 0 0 0 0 0 0 0 0 0 0 0 4 39 1 2 3 1 2 10 10 7 5 1 0 0 0 0 1 0 0 1 0 1 0
0 0 0 0 0 0 0 0 0 0 0 0 0 0 0 0 0 0 0 0 0 0 0 0 0 0 0 0 4 1 2 1 1 4 11 5 10 9 4 2 1 0 1 1 0 1 1 2 3
0 0 0 0 0 0 0 0 0 0 0 0 0 0 0 0 0 0 0 0 0 0 0 0 0 0 0 0 0 4 1 1 3 5 11 13 15 17 14 9 8 7 3 2 3 1 2 2 2
0 0 0 0 0 0 0 0 0 0 0 0 0 0 0 0 0 0 0 0 0 0 0 0 0 0 0 0 0 1 2 1 0 0 0 0 0 0 0 15 22 12 5 3 4 2 2 1 2
0 0 0 0 0 0 0 0 0 0 0 0 0 0 0 0 0 0 0 0 0 0 0 0 0 0 0 0 0 0 0 0 0 0 0 0 0 1 3 2 2 1 2 1 1 1 5 0 1
0 0 0 0 0 0 0 0 0 0 0 0 0 0 0 0 0 0 0 0 0 0 0 0 0 0 0 0 0 0 0 0 0 0 0 0 0 0 0 0 0 0 0 0 1 2 1 3 2
0 0 0 0 0 0 0 0 0 0 0 0 0 0 0 0 0 0 0 0 0 0 0 0 0 0 0 0 0 0 0 0 0 0 0 0 0 0 0 0 0 0 0 0 0 0 0 0 1
0 0 0 0 0 0 0 0 0 0 0 0 0 0 0 0 0 0 0 0 0 0 0 0 0 0 0 0 0 0 0 0 0 0 0 0 0 0 0 0 0 0 0 0 0 0 0 0 0
0 0 0 0 0 0 0 0 0 0 0 0 0 0 0 0 0 0 0 0 0 0 0 0 0 0 0 0 0 0 0 0 0 0 0 0 0 0 0 0 0 0 0 0 0 0 0 0 0
0 0 0 0 0 0 0 0 0 0 0 0 0 0 0 0 0 0 0 0 0 0 0 0 0 0 0 0 0 0 0 0 0 0 0 0 0 0 0 0 0 0 0 0 0 0 0 0 0
CIN
-0 -0 -0 -0 -0 -0 -0 -0 -0 -0 -0 -0 -0 -0 -0 -0 -0 -3 -47 -15 -0 -1 -54 -11 -9 -4 -10 -26 -39 -2 -2 -0 -4 -105 -0 -0 -0 -0 -0 -2 -2 -0 -1 -0 -0 -0 -0 -4 -7
-0 -0 -0 -0 -0 -0 -0 -0 -0 -0 -0 -0 -0 -0 -0 -0 -0 -83 -48 -7 -13 -42 -43 -84 -17 -28 -34 -21 -8 -2 -1 -0 -8 -120 -0 -0 -0 -1 -3 -4 -5 -0 -0 -0 -1 -0 -1 -7 -7
-0 -0 -0 -0 -0 -0 -0 -0 -0 -0 -0 -0 -0 -0 -0 -0 -15 -48 -39 -46 -52 -71 -22 -42 -9 -10 -30 -10 -2 -2 -0 -0 -20 -140 -0 -0 -0 -0 -0 -2 -7 -1 -0 -0 -0 -0 -7 -7 -8
-0 -0 -0 -0 -0 -0 -0 -0 -0 -0 -0 -0 -0 -0 -0 -0 -99 -65 -112 -1 -0 -1 -3 -8 -3 -23 -82 -46 -5 -1 -1 -0 -58 -153 -0 -0 -0 -0 -0 -0 -1 -3 -0 -0 -0 -6 -7 -7 -7
-0 -0 -0 -0 -0 -0 -0 -0 -0 -0 -0 -0 -0 -0 -0 -0 -153 -142 -65 -0 -28 -2 -3 -11 -30 -94 -0 -4 -19 -3 -3 -26 -108 -217 -197 -0 -0 -0 -0 -0 -3 -6 -4 -0 -1 -7 -8 -6 -6
-0 -0 -0 -0 -0 -0 -0 -0 -0 -0 -0 -0 -0 -0 -0 -188 -132 -168 -164 -51 -17 -1 -20 -45 -86 -0 -0 -0 -53 -7 -2 -22 -0 -0 -0 -0 -0 -1 -0 -0 -1 -1 -3 -7 -5 -7 -0 -0 -0
-0 -0 -0 -0 -0 -0 -0 -0 -0 -0 -0 -0 -0 -0 -0 -157 -141 -0 -0 -77 -17 -13 -44 -0 -0 -0 -0 -0 -0 -2 -10 -1 -0 -0 -0 -0 -0 -1 -0 -0 -0 -6 -9 -7 -7 -9 -0 -0 -0
-0 -0 -0 -0 -0 -0 -0 -0 -0 -0 -0 -0 -0 -0 -0 -151 -180 -0 -0 -103 -59 -46 -26 -79 -0 -0 -0 -0 -0 -0 -0 -0 -0 -0 -0 -0 -0 -0 -0 -0 -0 -6 -5 -5 -9 -0 -0 -0 -0
-0 -0 -0 -0 -0 -0 -0 -0 -0 -0 -0 -0 -0 -0 -0 -206 -228 -0 -0 -132 -96 -94 -47 -12 -77 -0 -0 -1 -0 -0 -0 -0 -0 -0 -0 -0 -0 -0 -0 -0 -0 -3 -2 -4 -3 -0 -0 -0 -0
-0 -0 -0 -0 -0 -0 -0 -0 -0 -0 -0 -0 -0 -0 -134 -235 -227 -315 -279 -184 -124 -114 -97 -53 -35 -74 -14 -1 -0 -0 -0 -0 -0 -0 -0 -0 -0 -0 -0 -0 -0 -2 -0 -1 -1 -0 -0 -0 -0
-0 -0 -0 -0 -0 -0 -0 -0 -0 -0 -0 -0 -0 -0 -0 -224 -33 -0 -30 -243 -156 -135 -109 -85 -71 -78 -100 -0 -0 -1 -0 -0 -0 -0 -0 -0 -0 -0 -0 -0 -0 -0 -0 -0 -0 -0 -0 -0 -0
-0 -0 -0 -0 -0 -0 -0 -0 -0 -0 -0 -0 -0 -0 -0 -0 -0 -0 -0 -0 -221 -150 -130 -161 -156 -119 -80 -152 -155 -9 -0 -1 -0 -0 -0 -0 -0 -0 -0 -0 -0 -0 -0 -0 -0 -0 -0 -0 -0
-0 -0 -0 -0 -0 -0 -0 -0 -0 -0 -0 -0 -0 -0 -0 -0 -0 -0 -0 -0 -0 -0 -162 -177 -190 -177 -112 -107 -128 -0 -0 -0 -0 -0 -0 -0 -0 -0 -0 -0 -0 -0 -0 -0 -0 -0 -0 -0 -0
-0 -0 -0 -0 -0 -0 -0 -0 -0 -0 -0 -0 -0 -0 -0 -0 -0 -0 -0 -0 -0 -0 -0 -187 -199 -241 -114 -0 -0 -192 -167 -106 -0 -0 -0 -0 -0 -0 -0 -0 -0 -0 -0 -0 -0 -0 -0 -0 -0
-0 -0 -0 -0 -0 -0 -0 -0 -0 -0 -0 -0 -0 -0 -0 -0 -0 -0 -0 -0 -0 -0 -214 -188 -183 -105 -0 -0 -1 -20 -4 -1 -1 -3 -0 -0 -0 -0 -0 -0 -0 -0 -0 -0 -0 -0 -0 -0 -0
-0 -0 -0 -0 -0 -0 -0 -0 -0 -0 -0 -0 -0 -0 -0 -0 -0 -0 -0 -0 -0 -59 -229 -176 -200 -295 -0 -1 -33 -45 -1 -2 -1 -2 -1 -0 -0 -0 -0 -0 -0 -0 -0 -0 -0 -0 -0 -0 -0
-0 -0 -0 -0 -0 -0 -0 -0 -0 -0 -0 -0 -0 -0 -0 -0 -0 -0 -0 -0 -0 -0 -284 -218 -191 -155 -0 -322 -264 -231 -252 -1 -0 -2 -0 -0 -0 -0 -0 -0 -0 -0 -0 -0 -0 -0 -0 -0 -0
-0 -0 -0 -0 -0 -0 -0 -0 -0 -0 -0 -0 -0 -0 -0 -0 -0 -0 -0 -0 -0 -0 -0 -278 -208 -223 -0 -358 -306 -284 -265 -229 -2 -183 -0 -3 -0 -0 -0 -0 -0 -0 -0 -0 -0 -0 -0 -0 -0
-0 -0 -0 -0 -0 -0 -0 -0 -0 -0 -0 -0 -0 -0 -0 -0 -0 -0 -0 -0 -0 -0 -0 -0 -320 -214 -310 -1 -362 -1 -296 -290 -271 -235 -244 -0 -0 -0 -0 -0 -0 -1 -0 -0 -0 -0 -0 -0 -0
-0 -0 -0 -0 -0 -0 -0 -0 -0 -0 -0 -0 -0 -0 -0 -0 -0 -0 -0 -0 -0 -0 -0 -0 -0 -275 -222 -359 -1 -369 -260 -352 -311 -284 -4 -1 -1 -0 -0 -0 -0 -0 -0 -0 -0 -0 -0 -0 -0
-0 -0 -0 -0 -0 -0 -0 -0 -0 -0 -0 -0 -0 -0 -0 -0 -0 -0 -0 -0 -0 -0 -0 -0 -0 -0 -119 -292 -4 -1 -0 -1 -1 -309 -155 -1 -3 -3 -0 -0 -0 -0 -0 -0 -0 -0 -0 -0 -0
-0 -0 -0 -0 -0 -0 -0 -0 -0 -0 -0 -0 -0 -0 -0 -0 -0 -0 -0 -0 -0 -0 -0 -0 -0 -0 -0 -0 -0 -1 -1 -0 -1 -7 -5 -7 -7 -8 -10 -14 -13 -19 -0 -0 -0 -0 -0 -0 -0
-0 -0 -0 -0 -0 -0 -0 -0 -0 -0 -0 -0 -0 -0 -0 -0 -0 -0 -0 -0 -0 -0 -0 -0 -0 -0 -0 -0 -0 -0 -1 -3 -2 -6 -4 -4 -5 -6 -5 -10 -12 -15 -20 -14 -24 -0 -0 -0 -0
-0 -0 -0 -0 -0 -0 -0 -0 -0 -0 -0 -0 -0 -0 -0 -0 -0 -0 -0 -0 -0 -0 -0 -0 -0 -0 -0 -0 -0 -0 -1 -1 -0 -0 -0 -0 -0 -0 -0 -6 -1 -8 -3 -5 -17 -18 -8 -8 -0
-0 -0 -0 -0 -0 -0 -0 -0 -0 -0 -0 -0 -0 -0 -0 -0 -0 -0 -0 -0 -0 -0 -0 -0 -0 -0 -0 -0 -0 -0 -0 -0 -0 -0 -0 -0 -0 -0 -0 -0 -2 -1 -0 -4 -0 -0 -11 -0 -15
-0 -0 -0 -0 -0 -0 -0 -0 -0 -0 -0 -0 -0 -0 -0 -0 -0 -0 -0 -0 -0 -0 -0 -0 -0 -0 -0 -0 -0 -0 -0 -0 -0 -0 -0 -0 -0 -0 -0 -0 -0 -0 -0 -0 -0 -2 -0 -0 -0
-0 -0 -0 -0 -0 -0 -0 -0 -0 -0 -0 -0 -0 -0 -0 -0 -0 -0 -0 -0 -0 -0 -0 -0 -0 -0 -0 -0 -0 -0 -0 -0 -0 -0 -0 -0 -0 -0 -0 -0 -0 -0 -0 -0 -0 -0 -0 -0 -1
-0 -0 -0 -0 -0 -0 -0 -0 -0 -0 -0 -0 -0 -0 -0 -0 -0 -0 -0 -0 -0 -0 -0 -0 -0 -0 -0 -0 -0 -0 -0 -0 -0 -0 -0 -0 -0 -0 -0 -0 -0 -0 -0 -0 -0 -0 -0 -0 -0
-0 -0 -0 -0 -0 -0 -0 -0 -0 -0 -0 -0 -0 -0 -0 -0 -0 -0 -0 -0 -0 -0 -0 -0 -0 -0 -0 -0 -0 -0 -0 -0 -0 -0 -0 -0 -0 -0 -0 -0 -0 -0 -0 -0 -0 -0 -0 -0 -0
-0 -0 -0 -0 -0 -0 -0 -0 -0 -0 -0 -0 -0 -0 -0 -0 -0 -0 -0 -0 -0 -0 -0 -0 -0 -0 -0 -0 -0 -0 -0 -0 -0 -0 -0 -0 -0 -0 -0 -0 -0 -0 -0 -0 -0 -0 -0 -0 -0
Wind_Speed
20 18 17 17 13 13 9 10 13 15 16 16 14 12 13 11 12 16 20 21 15 12 4 4 5 6 7 9 10 10 12 13 14 14 14 15 15 16 16 18 20 20 21 21 22 22 23 23 23
19 18 18 17 14 8 8 10 14 13 15 17 18 12 9 9 12 21 22 23 20 16 12 5 5 6 8 9 9 10 11 13 14 13 14 15 15 16 17 18 19 20 20 21 22 22 23 23 23
20 19 19 15 14 10 7 10 13 13 16 21 19 14 12 11 18 23 24 27 25 19 11 8 7 7 9 10 9 10 11 12 11 10 14 14 14 16 16 17 20 21 22 22 22 23 23 23 22
20 19 19 17 9 9 8 13 12 17 21 20 17 17 6 10 21 23 27 29 29 22 12 10 5 7 6 5 8 13 15 9 8 11 11 11 14 16 17 17 19 21 22 22 22 22 22 22 22
21 21 17 15 8 7 7 6 15 22 24 22 20 20 13 18 23 27 30 30 30 28 28 28 3 4 4 4 5 9 12 10 6 10 12 14 15 16 18 18 19 20 21 21 21 22 22 22 22
22 23 16 12 5 5 6 6 8 24 22 21 21 22 19 25 26 29 30 30 29 29 29 28 27 27 26 22 13 15 19 18 18 18 18 18 19 19 19 19 19 20 21 21 21 21 21 21 21
27 22 19 12 4 3 7 16 25 25 22 21 17 21 22 25 25 29 30 29 28 28 28 27 27 26 26 25 25 24 23 21 20 21 20 20 19 18 19 19 20 20 20 20 20 20 20 20 20
23 24 18 14 5 7 11 12 21 24 20 17 17 20 22 24 25 27 28 28 27 26 26 26 26 26 25 25 24 24 23 21 20 20 19 19 19 18 19 19 19 19 19 19 19 19 19 18 18
23 22 21 13 11 7 13 17 20 17 19 18 18 15 14 24 25 26 26 26 25 25 23 24 25 24 24 23 23 22 20 19 19 18 18 19 18 17 18 17 17 17 18 18 18 17 17 17 17
26 25 20 18 17 16 22 24 20 21 21 22 21 16 15 25 26 25 26 25 25 24 24 23 23 23 22 22 21 21 19 19 18 17 17 16 16 16 15 16 16 17 17 17 17 16 15 14 15
25 25 17 19 18 19 22 21 19 21 24 22 26 26 23 24 26 25 24 24 24 23 23 22 22 22 21 20 19 19 18 17 16 15 15 14 14 14 14 14 14 14 13 15 15 14 13 14 14
24 21 19 20 20 21 21 18 21 24 16 14 16 19 23 24 24 25 25 23 23 22 22 20 20 21 21 19 18 18 16 15 14 13 13 12 12 12 12 12 12 12 12 12 12 13 13 13 13
26 21 19 18 20 21 19 21 18 22 16 14 14 22 26 25 25 24 23 23 22 22 21 19 19 18 18 17 17 15 17 14 13 11 10 10 9 9 10 10 10 10 10 11 11 11 11 11 11
24 21 19 19 19 20 21 21 20 19 19 22 19 20 26 26 25 23 23 22 22 22 21 19 19 17 17 16 15 14 14 11 10 8 8 8 7 8 8 8 8 8 9 9 9 9 9 9 9
20 22 22 22 20 21 20 23 24 16 16 16 18 17 16 13 17 20 20 20 19 21 19 20 16 15 15 12 13 11 5 5 5 5 5 5 5 5 6 6 7 7 7 8 9 8 8 9 9
26 27 27 24 24 22 22 22 17 20 21 19 14 14 14 13 2 4 10 15 14 14 15 12 4 4 9 6 3 1 2 3 3 4 5 3 3 3 5 5 6 7 7 8 8 9 9 9 10
32 32 32 24 26 22 25 24 18 18 17 16 14 13 13 14 12 5 6 7 7 6 5 3 2 1 2 2 4 5 5 5 6 6 5 5 5 5 5 7 7 9 9 9 10 11 12 13 14
32 35 30 30 26 26 26 29 20 18 19 16 15 14 12 12 13 13 14 10 4 2 3 2 4 5 5 6 6 9 10 11 11 10 10 10 10 10 10 10 11 12 13 13 14 15 16 16 19
33 34 30 27 24 27 31 30 26 22 22 21 21 18 16 14 15 16 16 17 15 11 5 4 4 4 6 8 10 12 12 13 13 14 15 14 14 12 11 13 15 15 15 16 17 18 19 21 21
29 31 30 24 25 26 28 32 30 24 25 22 23 22 18 15 15 16 16 16 16 13 11 9 8 8 7 9 11 14 14 15 15 17 17 15 15 15 14 15 16 17 18 19 19 20 23 24 23
30 31 30 29 24 25 26 31 25 25 22 21 21 21 19 16 14 15 16 17 16 15 14 12 10 10 10 9 11 14 17 19 18 17 19 18 17 17 17 18 19 20 20 22 22 22 22 26 26
33 27 24 24 24 30 25 28 25 24 26 22 19 18 16 13 12 13 15 16 16 17 16 14 13 12 12 12 13 15 17 19 20 21 20 20 19 18 19 19 20 21 22 22 24 24 24 25 29
30 24 23 23 27 27 27 31 26 21 26 22 18 16 15 12 11 11 12 13 14 14 14 12 11 12 14 14 15 17 18 19 19 22 22 20 20 19 20 21 22 23 23 24 25 26 26 26 28
21 21 21 23 27 36 31 31 29 25 26 19 15 13 12 11 11 10 11 11 12 12 12 12 11 12 12 12 13 15 17 20 22 23 24 25 26 26 25 26 25 25 25 26 27 27 28 28 29
27 26 30 33 33 36 27 31 29 22 20 18 13 11 10 8 9 9 9 10 10 11 11 12 11 12 12 13 14 15 15 17 18 21 22 24 24 26 27 28 29 29 30 30 31 32 31 30 31
33 31 32 36 36 36 27 34 31 21 19 12 11 9 9 9 8 7 8 8 9 10 11 11 12 13 14 14 15 17 18 19 20 22 23 24 25 27 28 29 30 31 31 32 32 33 34 33 34
34 38 27 28 28 32 31 32 28 22 18 14 12 10 9 8 7 6 7 8 8 9 10 11 12 14 15 16 17 18 20 21 22 23 24 26 27 28 30 31 32 32 33 35 35 35 36 36 36
32 25 33 32 37 39 33 36 35 24 20 16 14 12 10 8 6 5 6 7 8 9 10 11 13 14 16 17 18 19 21 22 23 24 27 28 29 31 32 33 34 35 36 37 38 38 37 37 37
31 33 32 31 34 38 39 38 28 25 20 17 14 12 10 8 7 6 6 7 8 9 10 12 14 15 17 18 20 21 23 24 25 27 29 30 31 33 35 36 37 38 39 39 40 39 40 41 42
33 35 33 37 38 37 34 37 25 21 15 15 13 12 11 10 9 8 8 8 9 10 12 13 15 16 18 20 21 23 25 26 28 30 31 32 34 35 37 38 39 41 41 41 42 43 44 44 45
Wind_Direction
239 243 249 247 298 312 354 28 43 60 66 47 14 258 331 289 173 116 108 120 84 81 48 346 356 357 354 358 7 15 46 38 30 26 23 29 27 26 26 32 39 34 36 37 40 43 43 38 39
243 250 243 252 285 334 360 37 71 46 45 59 87 102 178 331 327 81 102 109 94 84 81 28 0 360 357 355 357 19 45 42 35 22 25 33 31 28 31 37 39 34 34 41 42 41 42 42 41
241 243 250 273 279 313 354 61 62 47 127 131 89 176 241 238 48 90 102 114 104 88 65 47 40 29 23 25 16 23 51 42 28 12 28 34 28 26 27 28 41 46 44 51 47 45 43 42 41
243 245 245 256 304 319 338 82 64 83 158 161 171 53 35 281 83 127 110 115 118 95 52 58 29 24 7 332 12 45 57 29 7 10 16 19 29 31 30 29 33 51 48 56 48 46 43 42 38
238 242 258 265 299 330 298 42 84 117 134 147 150 83 142 165 139 107 115 121 125 116 112 120 286 270 335 307 337 24 43 31 347 12 21 31 38 36 38 37 33 47 55 50 52 48 46 44 43
241 236 258 261 299 322 294 274 237 169 168 159 152 129 65 127 128 118 121 125 127 121 129 132 131 133 127 108 100 134 73 64 60 56 53 56 63 54 49 49 40 63 59 56 50 50 50 50 48
230 239 248 261 279 324 271 224 181 175 174 169 190 154 133 128 116 124 124 126 127 117 135 132 138 139 142 143 144 138 107 84 78 75 70 66 63 56 51 61 56 62 58 52 45 49 53 54 52
234 234 248 250 259 278 244 238 213 187 199 211 203 167 133 122 119 124 127 128 126 127 131 142 132 136 137 140 147 140 119 95 87 80 71 69 62 63 62 67 58 57 57 53 49 51 54 56 54
235 236 240 248 256 259 233 229 219 231 212 218 214 219 210 117 123 124 127 133 132 138 128 137 140 139 136 130 129 123 104 93 87 79 79 89 72 83 88 48 61 58 50 47 48 48 46 47 45
228 233 242 239 241 233 218 214 221 213 207 202 199 215 91 123 135 132 140 141 141 142 141 140 142 141 138 134 127 132 119 121 118 103 103 95 84 71 64 56 50 43 49 44 43 48 56 66 48
229 230 242 234 232 223 219 222 227 218 206 209 184 166 132 135 148 147 146 147 149 144 144 145 145 146 142 139 133 133 131 128 124 110 107 89 76 72 75 67 70 63 65 52 53 56 61 46 44
227 234 236 230 228 222 222 226 224 215 240 253 244 127 143 146 150 156 158 153 153 153 150 145 148 152 152 145 144 144 135 130 124 119 114 95 86 79 72 68 67 60 67 59 61 58 52 51 49
228 230 236 234 230 227 232 229 238 228 244 251 252 220 168 166 164 162 161 163 157 159 159 152 150 150 151 151 151 141 154 142 135 117 113 99 82 71 65 61 62 64 62 58 54 55 56 55 55
231 230 233 235 235 234 234 237 240 245 249 239 249 241 190 175 169 163 165 163 164 166 164 157 158 156 156 155 153 150 152 135 126 110 103 108 82 69 64 56 55 52 49 44 44 47 46 44 42
225 231 236 237 238 240 243 244 241 258 261 266 260 263 264 149 148 158 162 165 162 168 165 166 157 155 159 151 157 148 99 97 90 88 96 98 94 63 49 39 36 34 33 25 23 24 22 18 18
230 233 236 240 239 245 245 252 254 260 260 265 278 277 278 285 110 120 136 156 154 157 161 155 137 145 158 149 137 53 9 13 21 12 10 63 64 45 24 12 9 8 8 5 1 359 358 354 352
230 233 235 243 241 247 244 251 264 267 269 271 278 284 286 286 293 310 138 141 144 150 157 173 183 236 218 255 302 312 320 324 333 338 344 341 346 346 343 344 346 346 339 336 336 336 336 335 333
229 231 237 239 243 245 248 248 264 268 266 273 278 287 296 298 298 298 293 298 296 234 197 230 277 285 290 295 299 304 307 309 312 319 322 325 322 320 322 325 328 330 327 325 324 323 324 323 325
234 234 240 242 248 247 247 250 256 263 265 267 272 282 290 298 299 298 299 295 296 295 276 255 249 270 287 291 295 299 299 304 306 306 310 313 314 313 309 310 313 317 318 317 318 316 316 317 318
234 235 239 247 249 249 252 252 255 263 264 271 273 278 289 299 303 303 303 302 299 298 294 287 283 285 288 296 297 302 307 306 305 307 306 307 309 310 309 308 309 309 310 312 312 312 314 315 315
237 237 240 247 248 255 258 258 257 263 269 274 279 283 291 298 304 308 309 308 306 301 296 291 288 289 292 299 306 304 304 308 310 309 310 309 308 309 307 307 307 309 309 309 311 311 308 310 314
237 244 242 245 246 250 255 260 259 262 266 273 280 285 292 300 308 311 312 313 312 311 307 298 294 294 297 299 301 305 305 305 308 311 312 312 310 309 309 309 309 309 310 310 310 311 309 310 310
240 241 243 247 250 256 256 259 263 266 265 271 279 286 291 302 309 314 319 322 324 326 328 326 316 308 306 306 306 310 312 313 316 316 316 319 318 315 314 313 311 310 311 310 310 311 309 309 309
233 238 248 252 254 253 255 257 264 264 265 269 277 286 292 301 310 318 325 331 333 339 342 346 347 340 335 330 324 321 322 321 321 321 321 322 321 322 323 323 320 318 316 314 313 312 310 309 307
237 230 243 247 249 252 260 258 263 270 274 269 269 279 287 302 310 319 324 331 338 345 349 357 3 1 360 356 351 346 344 341 338 335 333 331 332 330 328 327 324 323 322 320 319 318 317 313 311
234 232 243 248 251 255 261 260 266 272 275 273 274 275 283 293 303 316 324 336 343 348 353 357 359 1 2 2 359 354 350 347 344 342 340 338 336 334 332 331 330 328 327 325 323 322 320 317 314
234 237 251 254 262 259 260 265 273 270 266 265 267 267 270 280 295 310 324 335 343 349 352 354 356 354 353 356 355 353 350 348 345 344 343 340 339 337 335 333 331 329 327 326 324 322 320 319 317
243 238 245 252 253 257 261 264 265 261 258 256 254 254 258 269 279 297 314 325 334 342 347 349 351 350 349 352 352 351 348 347 345 343 340 338 337 335 334 332 330 329 328 327 326 324 323 321 319
242 243 248 255 257 258 261 267 275 263 253 248 246 247 250 256 265 281 294 309 321 330 337 341 344 344 344 345 344 344 343 344 342 338 338 337 336 333 331 330 328 328 327 327 326 325 324 322 320
248 249 245 250 254 259 265 266 281 276 256 246 245 247 250 256 262 272 282 296 309 321 331 336 340 341 341 341 342 341 340 339 337 335 336 337 334 332 330 328 327 327 326 326 325 323 322 321 320